Weather History for Spirit of St Louis, MO

Change the Weather History Date:

Monday, June 10, 2013

  Actual Average Record
Temperature  
Mean Temperature 72 °F -  
Max Temperature 80 °F 79 °F 93 °F (1999)
Min Temperature 63 °F 60 °F 55 °F (1997)
Cooling Degree Days 6    
Growing Degree Days 22 (Base 50)    
Moisture  
Dew Point 61 °F    
Average Humidity 76    
Maximum Humidity 94    
Minimum Humidity 52    
Precipitation  
Precipitation 0.14 in - - ()
Sea Level Pressure  
Sea Level Pressure 29.83 in    
Wind  
Wind Speed 6 mph (West)    
Max Wind Speed 17 mph    
Max Gust Speed 23 mph    
Visibility 10 miles    
Events Rain    
Averages and records for this station are not official NWS values.
T = Trace of Precipitation, MM = Missing Value Source: NWS Daily Summary

Daily Weather History Graph

Daily Weather History Graph

Search for Another Location

Airport:

Trip Planner

Search our weather history database for the weather conditions in past years. The results will help you decide how hot, cold, wet, or windy it might be!

Date:

Astronomy

Jun. 10, 2013 Rise Set
Actual Time 5:37 AM CDT 8:26 PM CDT
Civil Twilight 5:05 AM CDT 8:58 PM CDT
Nautical Twilight 4:26 AM CDT 9:38 PM CDT
Astronomical Twilight 3:40 AM CDT 10:24 PM CDT
Moon 7:25 AM CDT (6/10) 9:55 PM CDT (6/10)
Length of Visible Light 15h 52m
Length of Day
14h 49m
Waxing Crescent, 4% of the Moon is Illuminated
Jun 10
Waxing Crescent
Jun 16
First Quarter
Jun 23
Full
Jun 29
Last Quarter
Jul 8
New

Hourly Weather History & Observations

Time (CDT) Temp. Heat Index Dew Point Humidity Pressure Visibility Wind Dir Wind Speed Gust Speed Precip Events Conditions
12:54 AM 66.0 °F - 61.0 °F 84% 29.80 in 10.0 mi Calm Calm - 0.00 in   Overcast
1:14 AM 64.4 °F - 62.6 °F 94% 29.81 in 2.0 mi SSW 17.3 mph 23.0 mph 0.12 in Rain Rain
1:23 AM 64.4 °F - 60.8 °F 88% 29.81 in 5.0 mi SW 6.9 mph - 0.13 in Rain Light Rain
1:54 AM 64.9 °F - 62.1 °F 90% 29.78 in 10.0 mi Variable 3.5 mph - 0.13 in   Overcast
2:54 AM 64.9 °F - 62.1 °F 90% 29.78 in 10.0 mi WSW 6.9 mph - N/A   Overcast
3:54 AM 64.0 °F - 61.0 °F 90% 29.77 in 10.0 mi WSW 5.8 mph - 0.00 in   Overcast
4:54 AM 64.0 °F - 61.0 °F 90% 29.77 in 10.0 mi WSW 4.6 mph - 0.01 in   Overcast
5:54 AM 63.0 °F - 61.0 °F 93% 29.79 in 10.0 mi Calm Calm - N/A   Overcast
6:54 AM 63.0 °F - 60.1 °F 90% 29.80 in 10.0 mi Calm Calm - N/A   Overcast
7:54 AM 64.9 °F - 61.0 °F 87% 29.80 in 10.0 mi WSW 6.9 mph - N/A   Overcast
8:54 AM 66.9 °F - 62.1 °F 84% 29.82 in 10.0 mi West 5.8 mph - N/A   Overcast
9:54 AM 71.1 °F - 63.0 °F 75% 29.82 in 10.0 mi West 9.2 mph - N/A   Mostly Cloudy
10:30 AM 71.6 °F - 62.6 °F 73% 29.84 in 10.0 mi WNW 6.9 mph - N/A   Mostly Cloudy
10:54 AM 73.0 °F - 61.0 °F 66% 29.83 in 10.0 mi WNW 10.4 mph - N/A   Mostly Cloudy
11:54 AM 73.9 °F - 62.1 °F 66% 29.84 in 10.0 mi NW 11.5 mph - N/A   Mostly Cloudy
12:54 PM 78.1 °F - 61.0 °F 56% 29.84 in 10.0 mi NW 11.5 mph - N/A   Mostly Cloudy
1:54 PM 77.0 °F - 60.1 °F 56% 29.85 in 10.0 mi West 8.1 mph - N/A   Mostly Cloudy
2:54 PM 77.0 °F - 60.1 °F 56% 29.85 in 10.0 mi WNW 11.5 mph - N/A   Mostly Cloudy
3:54 PM 79.0 °F - 60.1 °F 52% 29.85 in 10.0 mi NW 8.1 mph - N/A   Mostly Cloudy
4:54 PM 80.1 °F 81.1 °F 61.0 °F 52% 29.86 in 10.0 mi West 11.5 mph - N/A   Mostly Cloudy
5:54 PM 79.0 °F - 61.0 °F 54% 29.86 in 10.0 mi WNW 3.5 mph - N/A   Mostly Cloudy
6:54 PM 78.1 °F - 61.0 °F 56% 29.86 in 10.0 mi NW 5.8 mph - N/A   Partly Cloudy
7:54 PM 75.0 °F - 63.0 °F 66% 29.87 in 10.0 mi West 3.5 mph - N/A   Scattered Clouds
8:54 PM 69.1 °F - 63.0 °F 81% 29.87 in 10.0 mi Calm Calm - N/A   Partly Cloudy
9:54 PM 66.0 °F - 63.0 °F 90% 29.89 in 10.0 mi Calm Calm - N/A   Clear
10:54 PM 64.9 °F - 62.1 °F 90% 29.90 in 10.0 mi Calm Calm - N/A   Clear
11:54 PM 63.0 °F - 61.0 °F 93% 29.90 in 10.0 mi Calm Calm - N/A   Clear